| time (UTC) | temp C | wind direction | speed KPH | gust KPH | rain 1hr cm | rain 24hr cm | rain mn cm | humidity % | barometer mb |
| 20260506203018 | 17 | 114 | 0.0 | 0.0 | 0.00 | 0.00 | 0.00 | 71 | 1010.4 |
| 20260506201517 | 17 | 114 | 0.0 | 0.0 | 0.00 | 0.00 | 0.00 | 71 | 1010.4 |
| 20260506200017 | 17 | 114 | 0.0 | 0.0 | 0.00 | 0.00 | 0.00 | 70 | 1010.3 |
| 20260506194526 | 17 | 114 | 0.0 | 0.0 | 0.00 | 0.00 | 0.00 | 69 | 1010.0 |
| 20260506193015 | 17 | 116 | 0.0 | 0.0 | 0.00 | 0.00 | 0.00 | 69 | 1009.8 |
| 20260506191515 | 17 | 144 | 0.0 | 0.0 | 0.00 | 0.00 | 0.00 | 67 | 1009.9 |
| 20260506190014 | 17 | 149 | 0.0 | 0.0 | 0.00 | 0.00 | 0.00 | 66 | 1009.8 |
| 20260506184513 | 18 | 170 | 0.0 | 0.0 | 0.00 | 0.00 | 0.00 | 66 | 1009.6 |
| 20260506183012 | 18 | 162 | 0.0 | 4.8 | 0.00 | 0.00 | 0.00 | 66 | 1009.4 |
| 20260506181512 | 18 | 109 | 0.0 | 1.6 | 0.00 | 0.00 | 0.00 | 66 | 1009.2 |
| 20260506180012 | 18 | 129 | 0.0 | 0.0 | 0.00 | 0.00 | 0.00 | 65 | 1009.0 |
| 20260506174511 | 18 | 162 | 0.0 | 4.8 | 0.00 | 0.00 | 0.00 | 64 | 1009.1 |
| 20260506173011 | 18 | 135 | 0.0 | 1.6 | 0.00 | 0.00 | 0.00 | 63 | 1009.0 |
| 20260506171508 | 18 | 132 | 0.0 | 1.6 | 0.00 | 0.00 | 0.00 | 64 | 1009.2 |
| 20260506170007 | 19 | 156 | 0.0 | 6.4 | 0.00 | 0.00 | 0.00 | 63 | 1009.3 |
| 20260506164512 | 19 | 110 | 0.0 | 6.4 | 0.00 | 0.00 | 0.00 | 62 | 1009.4 |
| 20260506163006 | 19 | 167 | 0.0 | 8.0 | 0.00 | 0.00 | 0.00 | 61 | 1009.5 |
| 20260506161505 | 19 | 152 | 0.0 | 11.3 | 0.00 | 0.00 | 0.00 | 61 | 1009.3 |
| 20260506160004 | 19 | 124 | 0.0 | 8.0 | 0.00 | 0.00 | 0.00 | 62 | 1009.3 |
| 20260506154510 | 18 | 122 | 0.0 | 8.0 | 0.00 | 0.00 | 0.00 | 63 | 1009.3 |
| 20260506153001 | 18 | 141 | 0.0 | 12.9 | 0.00 | 0.00 | 0.00 | 65 | 1009.2 |
| 20260506151601 | 18 | 141 | 0.0 | 11.3 | 0.00 | 0.00 | 0.00 | 62 | 1009.3 |
| 20260506150105 | 18 | 121 | 0.0 | 9.7 | 0.00 | 0.00 | 0.00 | 63 | 1009.5 |
| 20260506144600 | 18 | 139 | 0.0 | 6.4 | 0.00 | 0.00 | 0.00 | 62 | 1009.6 |
| 20260506143058 | 18 | 131 | 0.0 | 4.8 | 0.00 | 0.00 | 0.00 | 65 | 1009.5 |
| 20260506141557 | 18 | 114 | 0.0 | 3.2 | 0.00 | 0.00 | 0.00 | 64 | 1009.8 |
| 20260506140057 | 18 | 139 | 1.6 | 19.3 | 0.00 | 0.00 | 0.00 | 64 | 1009.8 |
| 20260506134555 | 18 | 129 | 0.0 | 6.4 | 0.00 | 0.00 | 0.00 | 64 | 1009.9 |
| 20260506133104 | 19 | 162 | 0.0 | 9.7 | 0.00 | 0.00 | 0.00 | 63 | 1009.8 |
| 20260506131602 | 20 | 165 | 0.0 | 12.9 | 0.00 | 0.00 | 0.00 | 63 | 1009.9 |
| 20260506130056 | 20 | 191 | 0.0 | 19.3 | 0.00 | 0.00 | 0.00 | 63 | 1010.0 |
| 20260506124558 | 20 | 152 | 0.0 | 12.9 | 0.00 | 0.00 | 0.00 | 59 | 1010.0 |
| 20260506123052 | 19 | 188 | 0.0 | 19.3 | 0.00 | 0.00 | 0.00 | 59 | 1010.0 |
| 20260506121551 | 20 | 134 | 0.0 | 24.1 | 0.00 | 0.00 | 0.00 | 60 | 1010.0 |
| 20260506120051 | 20 | 149 | 0.0 | 20.9 | 0.00 | 0.00 | 0.00 | 61 | 1010.1 |
| 20260506114550 | 20 | 245 | 1.6 | 20.9 | 0.00 | 0.00 | 0.00 | 60 | 1010.2 |
| 20260506113151 | 20 | 226 | 1.6 | 0.0 | 0.00 | 0.00 | 0.00 | 57 | 1010.2 |
| 20260506111548 | 20 | 187 | 3.2 | 20.9 | 0.00 | 0.00 | 0.00 | 56 | 1010.1 |
| 20260506110048 | 20 | 113 | 0.0 | 19.3 | 0.00 | 0.00 | 0.00 | 56 | 1010.1 |
| 20260506104549 | 20 | 200 | 0.0 | 22.5 | 0.00 | 0.00 | 0.00 | 55 | 1010.2 |
| 20260506103045 | 20 | 240 | 1.6 | 11.3 | 0.00 | 0.00 | 0.00 | 56 | 1010.3 |
| 20260506101544 | 20 | 155 | 4.8 | 16.1 | 0.00 | 0.00 | 0.00 | 58 | 1010.3 |
| 20260506100044 | 20 | 213 | 0.0 | 3.2 | 0.00 | 0.00 | 0.00 | 58 | 1010.4 |
| 20260506094551 | 20 | 165 | 3.2 | 16.1 | 0.00 | 0.00 | 0.00 | 60 | 1010.3 |
| 20260506093041 | 20 | 186 | 0.0 | 8.0 | 0.00 | 0.00 | 0.00 | 59 | 1010.3 |
| 20260506091538 | 20 | 174 | 0.0 | 0.0 | 0.00 | 0.00 | 0.00 | 59 | 1010.2 |
| 20260506090036 | 19 | 293 | 0.0 | 0.0 | 0.00 | 0.00 | 0.00 | 60 | 1010.2 |
| 20260506084534 | 19 | 222 | 0.0 | 4.8 | 0.00 | 0.00 | 0.00 | 60 | 1010.3 |
| 20260506083031 | 18 | 258 | 0.0 | 0.0 | 0.00 | 0.00 | 0.00 | 62 | 1010.3 |
| 20260506081533 | 18 | 277 | 0.0 | 0.0 | 0.00 | 0.00 | 0.00 | 64 | 1010.3 |
| 20260506073021 | 17 | 352 | 0.0 | 0.0 | 0.00 | 0.00 | 0.00 | 69 | 1010.4 |
| 20260506071523 | 16 | 352 | 0.0 | 0.0 | 0.00 | 0.00 | 0.00 | 74 | 1010.4 |
| 20260506061517 | 12 | 352 | 0.0 | 0.0 | 0.00 | 0.00 | 0.00 | 83 | 1010.1 |
| 20260506044503 | -17 | 0.0 | 0.0 | 0.00 | 0.00 | 0.00 | 1009.8 | ||
| 20260506043059 | -17 | 0.0 | 0.0 | 0.00 | 0.00 | 0.00 | 1009.7 | ||
| 20260506041558 | 11 | 171 | 0.0 | 0.0 | 0.00 | 0.00 | 0.00 | 84 | 1009.6 |
| 20260506040057 | 11 | 170 | 0.0 | 0.0 | 0.00 | 0.00 | 0.00 | 84 | 1009.5 |
| 20260506034556 | 12 | 173 | 0.0 | 0.0 | 0.00 | 0.00 | 0.00 | 83 | 1009.5 |
| 20260506033055 | 12 | 173 | 0.0 | 0.0 | 0.00 | 0.00 | 0.00 | 83 | 1009.6 |
| 20260506031556 | 12 | 172 | 0.0 | 0.0 | 0.00 | 0.00 | 0.00 | 81 | 1009.8 |
| 20260506030048 | 13 | 158 | 0.0 | 0.0 | 0.00 | 0.00 | 0.00 | 80 | 1009.8 |
| 20260506024556 | 13 | 150 | 0.0 | 0.0 | 0.00 | 0.00 | 0.00 | 79 | 1009.8 |
| 20260506023045 | 13 | 19 | 0.0 | 0.0 | 0.00 | 0.00 | 0.00 | 80 | 1009.6 |
| 20260506021544 | 13 | 19 | 0.0 | 0.0 | 0.00 | 0.00 | 0.00 | 79 | 1009.5 |
| 20260506020044 | 13 | 19 | 0.0 | 0.0 | 0.00 | 0.00 | 0.00 | 78 | 1009.4 |
| 20260506014543 | 13 | 1 | 0.0 | 0.0 | 0.00 | 0.00 | 0.00 | 79 | 1009.4 |
| 20260506013039 | 13 | 327 | 0.0 | 0.0 | 0.00 | 0.00 | 0.00 | 80 | 1009.4 |
| 20260506011538 | 13 | 330 | 0.0 | 0.0 | 0.00 | 0.00 | 0.00 | 80 | 1009.5 |
| 20260506010035 | 14 | 338 | 0.0 | 0.0 | 0.00 | 0.00 | 0.00 | 78 | 1009.7 |
| 20260506004532 | 14 | 331 | 0.0 | 0.0 | 0.00 | 0.00 | 0.00 | 74 | 1009.9 |
| 20260506003035 | 15 | 322 | 0.0 | 0.0 | 0.00 | 0.00 | 0.00 | 72 | 1010.0 |
| 20260506001534 | 15 | 82 | 0.0 | 0.0 | 0.00 | 0.00 | 0.00 | 70 | 1010.1 |
| 20260506000026 | 15 | 103 | 0.0 | 0.0 | 0.00 | 0.00 | 0.00 | 69 | 1010.1 |
| 20260505234529 | 15 | 104 | 0.0 | 0.0 | 0.00 | 0.00 | 0.00 | 68 | 1010.1 |
| 20260505233021 | 15 | 104 | 0.0 | 0.0 | 0.00 | 0.00 | 0.00 | 67 | 1010.0 |
| 20260505231519 | 16 | 103 | 0.0 | 0.0 | 0.00 | 0.00 | 0.00 | 65 | 1009.9 |
| 20260505230033 | 16 | 103 | 0.0 | 0.0 | 0.00 | 0.00 | 0.00 | 65 | 1009.8 |
| 20260505224514 | 16 | 103 | 0.0 | 0.0 | 0.00 | 0.00 | 0.00 | 65 | 1009.8 |
| 20260505223012 | 16 | 111 | 0.0 | 0.0 | 0.00 | 0.00 | 0.00 | 64 | 1009.8 |
| 20260505221511 | 16 | 83 | 0.0 | 0.0 | 0.00 | 0.00 | 0.00 | 65 | 1009.8 |
| 20260505220009 | 16 | 90 | 0.0 | 0.0 | 0.00 | 0.00 | 0.00 | 66 | 1009.8 |
| 20260505214508 | 16 | 91 | 0.0 | 1.6 | 0.00 | 0.00 | 0.00 | 66 | 1009.8 |
| 20260505213010 | 17 | 81 | 0.0 | 6.4 | 0.00 | 0.00 | 0.00 | 67 | 1009.8 |
| 20260505211513 | 17 | 121 | 1.6 | 12.9 | 0.00 | 0.00 | 0.00 | 67 | 1009.9 |
| 20260505210012 | 17 | 74 | 1.6 | 16.1 | 0.00 | 0.00 | 0.00 | 66 | 1009.8 |
| 20260505204506 | 17 | 104 | 0.0 | 4.8 | 0.00 | 0.00 | 0.00 | 66 | 1009.6 |